COSMOS 2535 DEB

Satellite information

Favourite Embed

Satellite Type and Status

DEBRISIN ORBIT

Key statistics

Satellite COSMOS 2535 DEB at a glance.

Uptime

2251

Days in orbit

Revolutions

≈ 14.8

Per day

Orbit

SSO

Sun Synchronous Orbit

Inclination

97.7

Latest

Satellite identification and parameters

Extended collection of information and parameters for COSMOS 2535 DEB.

Object identification

Identified? True

Debris? True

Object name: COSMOS 2535 DEB

International designator: 2019-039L

Object number (NORAD): 44640

Object ID (CCSDS): 44640

Country: COMMONWEALTH OF INDEPENDENT STATES (CIS)

Current information (Y/N): Y

RCS size: SMALL

Orbital parameters

Period: 97.424 minutes

Inclination: 97.7377 deg

SMA: 7013.538 km

Apoapsis: 676.438 km

Periapsis: 594.369 km

RAAN: 238.3561 deg

Eccentricy: 0.00585078

Argument of periapsis: 278.7989 deg

Mean anomaly: 80.66 deg

Mean motion: 14.78076841 rev/day

Mean motion (dot): 0.00002488 rev/day2

B* drag term: 0.0003416397 1/REarth

Two-line elements (TLE)

Creation date: Sept. 6, 2025, 2:09 a.m.

Reference frame: TEME

Reference center: EARTH

Epoch: Sept. 5, 2025, 4:46 p.m. UTC

TLE line 0: 0 COSMOS 2535 DEB

TLE line 1: 1 44640U 19039L 25248.69900583 .00002488 00000-0 34164-3 0 9994

TLE line 2: 2 44640 97.7377 238.3561 0058508 278.7989 80.6600 14.78076841318440

Live tracking on map

Real-time ground track for satellite COSMOS 2535 DEB.

In-orbit conjunctions

A list of the most updated potential collisions computed for object COSMOS 2535 DEB.

Target Orbit TCA Probability of collision Miss distance Type
NIGERIASAT 1 SSO 2024-11-04 03:19:02 0.0001004346 920.0 (m) PAYLOAD

Associated space launch

Four satellites in the interests of the Ministry of Defense of Russia.

COSMOS 2535 DEB was lifted into orbit during the mission ‘Soyuz 2.1v/Volga | Kosmos 2535, Kosmos 2536, Kosmos 2537, Kosmos 2538’, on board a Soyuz 2.1v space rocket.

The launch took place on July 10, 2019, 5:14 p.m. from 43/4 (43R).

For more information about the launch, click the button.

Launch to space Soyuz 2.1v/Volga | Kosmos 2535, Kosmos 2536, Kosmos 2537, Kosmos 2538
Soyuz 2.1v/Volga | Kosmos 2535, Kosmos 2536, Kosmos 2537, Kosmos 2538

Agency: N/A

Status: Launch Successful

Launch date: July 10, 2019, 5:14 p.m. UTC

Rocket: Soyuz 2.1v

Launch pad: 43/4 (43R)

Location: Plesetsk Cosmodrome, Russian Federation

...

Latest news about this satellite

News about space launch
Four Russian military satellites launched from Plesetsk Cosmodrome


Newsletter sign-up

Weekly statistics, charts and insights to help you stay on top of the space industry.